FALCONSAT-3

Last updated on Sat Jan 21 2023 00:03:05 GMT+0000 (Coordinated Universal Time)

1 30776U 07006E 23019.74679043 .02819750 18204-5 13058-2 0 9992 2 30776 35.4146 253.0505 0009755 285.9569 74.0108 16.20543216883546

Satellite not in orbit

FALCONSAT-3